Regional Weather Roundup
Issued by NWS

Home | Current Version | Previous Version | Graphics & Text | Print | Product List | Glossary On
Versions: 1 2 3 4 5 6 7 8 9 10 11 12 13 14 15 16 17 18 19 20 21 22 23 24 25 26 27 28 29 30 31 32 33 34 35 36 37 38 39 40 41 42 43 44 45 46 47 48 49 50
000
ASUS43 KLMK 221202
RWRKY
KENTUCKY REGIONAL WEATHER ROUNDUP
NATIONAL WEATHER SERVICE LOUISVILLE KY
700 AM EST MON DEC 22 2014

NOTE "FAIR" INDICATES FEW OR NO CLOUDS BELOW 12,000 FEET
WITH NO SIGNIFICANT WEATHER AND/OR OBSTRUCTIONS TO VISIBILITY.

KYZ001>023-026-027-061>063-070>075-221300-
WESTERN AND SOUTH CENTRAL KENTUCKY

CITY           SKY/WX    TMP DP  RH WIND       PRES   REMARKS
PADUCAH        CLOUDY    42  38  85 SE7       29.85F
HENDERSON      CLOUDY    39  30  70 E8        29.90F WCI  34
OWENSBORO      CLOUDY    42  35  76 SE8       29.93F
HOPKINSVILLE   CLOUDY    45  43  93 SE8       29.91F
BOWLING GREEN  CLOUDY    37  32  82 CALM      29.96F
GLASGOW        NOT AVBL
$$

KYZ024-025-028>034-038-045-046-053-221300-
NORTH CENTRAL KENTUCKY

CITY           SKY/WX    TMP DP  RH WIND       PRES   REMARKS
LOUISVILLE/SDF CLOUDY    38  30  73 CALM      29.98F
LOUISVILLE/LOU CLOUDY    37  30  75 CALM      29.99S
FORT KNOX      CLOUDY    36  30  79 E5        29.96S WCI  32
$$

KYZ035>037-039>044-047>052-055>060-089>105-221300-
NORTHEAST KENTUCKY

CITY           SKY/WX    TMP DP  RH WIND       PRES   REMARKS
LEXINGTON      CLOUDY    37  29  72 SE8       30.01R WCI  31
COVINGTON      CLOUDY    34  26  72 SE7       30.01S WCI  28
FRANKFORT      MOCLDY    30  27  88 CALM      30.00R
$$

KYZ054-064>069-076>088-106>120-221300-
SOUTHEAST KENTUCKY

CITY           SKY/WX    TMP DP  RH WIND       PRES   REMARKS
JACKSON        CLOUDY    40  33  76 S3        30.02R
LONDON         CLOUDY    42  35  76 CALM      30.02R
SOMERSET       NOT AVBL
MIDDLESBORO    NOT AVBL
MONTICELLO     CLOUDY    46  38  74 S5        30.03S
$$



USA.gov is the U.S. government's official web portal to all federal, state and local government web resources and services.